Weather History for Santa Ana, CA

Change the Weather History Date:

Sunday, November 25, 2012

  Actual Average Record
Temperature  
Mean Temperature 59 °F 59 °F  
Max Temperature 65 °F 69 °F 84 °F (2009)
Min Temperature 53 °F 50 °F 45 °F (2010)
Degree Days  
Heating Degree Days 6 6  
Month to date heating degree days 46 93  
Since 1 July heating degree days 46 120  
Cooling Degree Days 0 0  
Month to date cooling degree days 36 22  
Year to date cooling degree days 1337 876  
Growing Degree Days 8 (Base 50)    
Moisture  
Dew Point 53 °F    
Average Humidity 80    
Maximum Humidity 93    
Minimum Humidity 67    
Precipitation  
Precipitation 0.00 in 0.03 in 0.49 in (2008)
Month to date precipitation 0.26 1.09  
Year to date precipitation 4.45 11.09  
Since 1 July precipitation 0.58 2.13  
Snow  
Snow 0.00 in - - ()
Month to date snowfall 0.0  
Year to date snowfall 0.0  
Since 1 July snowfall 0.0  
Snow Depth 0.00 in    
Sea Level Pressure  
Sea Level Pressure 29.94 in    
Wind  
Wind Speed 3 mph (South)    
Max Wind Speed 10 mph    
Max Gust Speed 13 mph    
Visibility 5 miles    
Events Fog    
T = Trace of Precipitation, MM = Missing Value Source: NWS Daily Summary

Daily Weather History Graph

Daily Weather History Graph

Search for Another Location

Airport:

Trip Planner

Search our weather history database for the weather conditions in past years. The results will help you decide how hot, cold, wet, or windy it might be!

Date:

Astronomy

Nov. 25, 2012 Rise Set
Actual Time 6:33 AM PST 4:43 PM PST
Civil Twilight 6:06 AM PST 5:10 PM PST
Nautical Twilight 5:35 AM PST 5:41 PM PST
Astronomical Twilight 5:05 AM PST 6:11 PM PST
Moon 2:59 PM PST (11/25) 3:56 AM PST (11/25)
Length of Visible Light 11h 04m
Length of Day
10h 10m
Waxing Gibbous, 93% of the Moon is Illuminated
Nov 25
Waxing Gibbous
Nov 28
Full
Dec 6
Last Quarter
Dec 13
New
Dec 19
First Quarter

Hourly Weather History & Observations

Time (PST) Temp. Dew Point Humidity Pressure Visibility Wind Dir Wind Speed Gust Speed Precip Events Conditions
12:53 AM 57.9 °F 50.0 °F 75% 29.94 in 10.0 mi Calm Calm - N/A   Clear
1:53 AM 55.9 °F 50.0 °F 80% 29.93 in 10.0 mi Calm Calm - N/A   Clear
2:14 AM 53.6 °F 51.8 °F 94% 29.92 in 1.8 mi NNE 3.5 mph - N/A   Partly Cloudy
2:21 AM 53.6 °F 51.8 °F 94% 29.92 in 0.2 mi Calm Calm - N/A Fog Fog
2:53 AM 54.0 °F 51.1 °F 90% 29.92 in 0.8 mi SSW 3.5 mph - N/A   Mist
2:59 AM 53.6 °F 51.8 °F 94% 29.92 in 3.0 mi SSW 3.5 mph - N/A   Scattered Clouds
3:05 AM 53.6 °F 50.0 °F 88% 29.92 in 1.5 mi SSW 5.8 mph - N/A   Scattered Clouds
3:07 AM 53.6 °F 50.0 °F 88% 29.92 in 0.8 mi SSW 5.8 mph - N/A   Mist
3:18 AM 53.6 °F 51.8 °F 94% 29.92 in 0.2 mi SW 4.6 mph - N/A Fog Fog
3:53 AM 55.9 °F 53.1 °F 90% 29.93 in 0.2 mi Calm Calm - N/A Fog Fog
4:53 AM 55.9 °F 53.1 °F 90% 29.93 in 0.2 mi Calm Calm - N/A Fog Fog
5:12 AM 55.4 °F 53.6 °F 94% 29.93 in 0.2 mi Calm Calm - N/A Fog Fog
5:53 AM 55.0 °F 52.0 °F 89% 29.94 in 0.1 mi Calm Calm - N/A Fog Fog
6:53 AM 55.0 °F 53.1 °F 93% 29.96 in 0.1 mi SSE 4.6 mph - N/A Fog Fog
7:53 AM 55.9 °F 53.1 °F 90% 29.97 in 0.1 mi East 5.8 mph - N/A Fog Fog
8:49 AM 55.4 °F 53.6 °F 94% 29.97 in 0.5 mi Variable 3.5 mph - N/A Fog Fog
8:53 AM 55.9 °F 53.1 °F 90% 29.97 in 0.5 mi ENE 3.5 mph - N/A Fog Fog
9:23 AM 57.2 °F 53.6 °F 88% 29.97 in 1.0 mi Calm Calm - N/A   Overcast
9:53 AM 57.9 °F 54.0 °F 87% 29.98 in 1.0 mi Calm Calm - N/A   Overcast
10:39 AM 60.8 °F 55.4 °F 82% 29.96 in 1.0 mi Calm Calm - N/A   Haze
10:43 AM 60.8 °F 53.6 °F 77% 29.96 in 4.0 mi Variable 3.5 mph - N/A   Overcast
10:53 AM 62.1 °F 54.0 °F 75% 29.96 in 4.0 mi SW 3.5 mph - N/A   Mostly Cloudy
11:41 AM 64.4 °F 53.6 °F 68% 29.94 in 4.0 mi WSW 6.9 mph - N/A   Haze
11:53 AM 63.0 °F 54.0 °F 72% 29.94 in 4.0 mi WSW 4.6 mph - N/A   Haze
12:53 PM 64.9 °F 54.0 °F 68% 29.93 in 5.0 mi SW 8.1 mph - N/A   Haze
1:53 PM 64.9 °F 54.0 °F 68% 29.90 in 7.0 mi SSW 8.1 mph - N/A   Scattered Clouds
2:53 PM 64.0 °F 54.0 °F 70% 29.89 in 10.0 mi SW 8.1 mph - N/A   Scattered Clouds
3:53 PM 63.0 °F 54.0 °F 72% 29.88 in 10.0 mi SW 6.9 mph - N/A   Scattered Clouds
4:53 PM 61.0 °F 54.0 °F 78% 29.88 in 10.0 mi SSW 8.1 mph - N/A   Scattered Clouds
5:53 PM 60.1 °F 54.0 °F 80% 29.91 in 10.0 mi South 5.8 mph - N/A   Scattered Clouds
6:53 PM 60.1 °F 54.0 °F 80% 29.92 in 10.0 mi South 4.6 mph - N/A   Mostly Cloudy
7:16 PM 60.8 °F 53.6 °F 77% 29.93 in 8.0 mi South 4.6 mph - N/A   Overcast
7:53 PM 61.0 °F 54.0 °F 78% 29.94 in 8.0 mi ESE 3.5 mph - N/A   Overcast
8:53 PM 61.0 °F 54.0 °F 78% 29.96 in 7.0 mi South 4.6 mph - N/A   Overcast
9:18 PM 60.8 °F 53.6 °F 77% 29.96 in 8.0 mi East 5.8 mph - N/A   Overcast
9:53 PM 61.0 °F 54.0 °F 78% 29.96 in 8.0 mi SE 6.9 mph - N/A   Overcast
10:30 PM 60.8 °F 53.6 °F 77% 29.96 in 9.0 mi South 6.9 mph - N/A   Overcast
10:53 PM 60.1 °F 53.1 °F 78% 29.97 in 9.0 mi South 4.6 mph - N/A   Overcast
11:53 PM 60.1 °F 53.1 °F 78% 29.98 in 10.0 mi Calm Calm - N/A   Overcast